Regional Weather Roundup
Issued by NWS Kansas City/Pleasant Hill, MO

Home | Current Version | Previous Version | Text Only | Print | Product List | Glossary On
Versions: 1 2 3 4 5 6 7 8 9 10 11 12 13 14 15 16 17 18 19 20 21 22 23 24 25 26 27 28 29 30 31 32 33 34 35 36 37 38 39 40 41 42 43 44 45 46 47 48 49 50
000
ASUS43 KEAX 281910
RWREAX

WEATHER ROUNDUP FOR EASTERN KANSAS AND NORTHWEST MISSOURI
NATIONAL WEATHER SERVICE KANSAS CITY/PLEASANT HILL MO
200 PM CDT SAT MAY 28 2016

KSZ040-057-103>105-MOZ028-029-037-043-282000-
...KANSAS CITY METROPOLITAN AREA...

CITY           SKY/WX    TMP DP  RH WIND       PRES   REMARKS
K.C. INTL      MOSUNNY   73  60  63 W15G24    29.88R
K.C. DOWNTOWN  PTSUNNY   74  60  61 W9        29.87R
LEES SUMMIT    MOSUNNY   74  60  61 SW16      29.89S
OLATHE - IXD   MOSUNNY   74  58  57 SW17      29.91R
OLATHE - OJC   PTSUNNY   73  58  59 W13       29.90R
LAWRENCE       PTSUNNY   73  60  63 W13       29.89R

$$

MOZ001>008-011>017-020>025-030>033-038>040-044>046-053-054-282000-
...NORTHERN AND CENTRAL MISSOURI...

CITY           SKY/WX    TMP DP  RH WIND       PRES   REMARKS
ST. JOSEPH     MOSUNNY   74  60  61 SW13      29.85S
MOSBY          MOCLDY    72  59  64 SW8       29.87S
WARRENSBURG    MOSUNNY   75  61  60 SW13G21   29.90R
WHITEMAN AFB   MOSUNNY   77  65  65 W20       29.88S
CLINTON        PTSUNNY   77  64  65 SW12G20   29.91S
SEDALIA        PTSUNNY   78  62  57 SW17G23   29.92R
WARSAW         NOT AVBL
CHILLICOTHE      N/A     73  62  68 SW9       29.87R
KIRKSVILLE     LGT RAIN  75  64  68 SW16G22   29.87S

$$

MOZ041-047>049-056>058-063>065-088>090-097-282000-
...EASTERN AND SOUTHERN MISSOURI...

CITY           SKY/WX    TMP DP  RH WIND       PRES   REMARKS
ST. LOUIS INTL PTSUNNY   84  64  50 S13G18    29.92F
SPIRIT OF STL  PTSUNNY   83  67  58 S8        29.91S
COLUMBIA       PTSUNNY   81  64  56 SW17G26   29.90R
JEFFERSON CITY SUNNY     82  66  58 S14G22    29.88F
ROLLA          MOSUNNY   80  67  64 S13       29.92F
SPRINGFIELD    MOSUNNY   78  65  63 W13       29.96R
BRANSON        MOSUNNY   81  66  61 SW6       29.99S
JOPLIN         PTSUNNY   76  65  68 S12       29.94F
WEST PLAINS    MOSUNNY   79  65  62 S12       29.99F

$$

IAZ060-094-KSZ022-034>040-054-083-096-NEZ052-066-093-282000-
...KANSAS...SOUTHEAST NEBRASKA AND IOWA...

CITY           SKY/WX    TMP DP  RH WIND       PRES   REMARKS
TOPEKA         MOSUNNY   75  60  59 SW13      29.89R
MANHATTAN      MOSUNNY   75  58  55 W10G18    29.89S
EMPORIA        MOSUNNY   73  58  59 W9        29.92S
CHANUTE        MOSUNNY   77  62  59 SW12      29.92S
WICHITA        MOSUNNY   78  57  48 W7        29.93S
OMAHA          PTSUNNY   71  56  58 SW17G26   29.79R
LINCOLN        CLOUDY    71  56  58 W14G24    29.83S
FALLS CITY     MOSUNNY   72  60  66 W15G23    29.85R
LAMONI         LGT RAIN  66  62  87 SW13      29.84S
DES MOINES     LGT RAIN  67  63  87 SW10      29.79S FOG

$$




USA.gov is the U.S. government's official web portal to all federal, state and local government web resources and services.